Temp
6 5 4 5 3 3 2 1 2 2 1 0 -0 0 0 -1 -1 -3 -3 -2 -3 -1 -2 -3 -4 -4 -3 -2 -3 -2 -2 -1 1 1 2 2 2 1 2 2 -1 -3 -3 1 5 4 3 5 6 4 7 4 5 6 7 10 8 8 7 7 8 9 14
1 1 3 1 2 2 2 2 3 1 -2 -1 -1 -2 -1 -2 -3 -4 -4 -4 -5 -5 -4 -4 -5 -5 -4 -4 -4 -4 -3 -2 -2 -2 -1 -0 1 1 1 3 -0 -2 -3 -4 1 2 4 3 6 2 6 4 3 4 5 4 6 7 7 7 8 8 9
-0 1 -0 1 1 1 0 1 -0 0 -0 -1 -1 -2 -2 -2 -3 -3 -4 -4 -4 -4 -5 -5 -5 -5 -5 -4 -5 -4 -4 -3 -3 -1 -1 -1 1 -0 1 2 2 -1 -4 -4 -3 1 -0 1 2 2 2 4 4 4 4 3 4 5 7 8 8 8 8
0 -0 -0 -1 -1 -1 -1 -0 -0 -0 -0 1 -1 -1 -0 -2 -2 -2 -3 -3 -4 -4 -5 -5 -6 -5 -5 -5 -5 -5 -4 -3 -2 -2 -2 -1 -0 1 0 1 1 1 -2 -3 -5 -2 -1 0 0 1 3 4 4 3 3 4 4 6 5 6 7 8 7
-2 -2 -1 -2 -2 -1 -2 -1 -1 -0 -0 -0 -0 -1 -1 -2 -2 -2 -2 -2 -3 -2 -4 -5 -5 -5 -5 -5 -6 -5 -4 -3 -4 -2 -1 -1 -0 -0 0 0 0 -1 -1 -3 -5 -4 -1 -0 -0 1 1 3 0 1 2 3 3 3 4 5 6 6 7
-2 -1 -2 -2 -1 -2 -2 -1 -2 -2 -2 -2 -1 -1 -1 -1 -2 -2 -2 -2 -2 -3 -3 -4 -4 -4 -4 -5 -5 -4 -4 -3 -4 -3 -2 -2 -1 -0 -0 -1 -1 -1 -2 -3 -4 -4 -5 -1 -2 -2 -1 1 1 -0 -1 0 2 3 3 3 3 4 5
-3 -2 -2 -2 -1 -2 -2 -1 -1 -2 -2 -2 -2 -2 -3 -3 -3 -2 -3 -3 -3 -3 -3 -3 -3 -3 -3 -4 -4 -4 -3 -3 -3 -3 -3 -2 -2 -1 -2 -3 -3 -3 -3 -4 -4 -4 -3 -4 -2 -1 -3 0 2 1 0 -2 -2 -2 1 2 1 0 3
-2 -2 -2 -2 -2 -1 -1 -2 -2 -2 -2 -2 -2 -3 -3 -3 -3 -4 -4 -4 -3 -3 -3 -3 -3 -3 -2 -2 -2 -2 -2 -2 -3 -2 -3 -1 -1 -1 -2 -3 -3 -4 -4 -4 -5 -5 -6 -4 -5 -3 -1 0 -0 -2 -2 -0 -2 -5 -3 -2 0 1 -0
-1 -3 -2 -2 -1 -2 -1 -2 -2 -2 -2 -3 -4 -3 -4 -4 -4 -4 -4 -4 -3 -3 -3 -3 -2 -2 -2 -0 2 3 3 3 2 -1 -2 -1 -1 -1 -2 -3 -3 -4 -5 -5 -5 -6 -5 -5 -5 -5 -5 -5 -5 -5 -5 -3 -2 -4 -2 -2 -2 -1 1
-2 -2 -3 -3 -3 -3 -2 -2 -2 0 2 2 -1 -3 -2 -2 -1 -2 -2 -2 -1 -0 0 -0 -1 -0 2 3 4 4 5 5 6 6 4 2 1 0 -1 -2 -3 -4 -4 -5 -7 -7 -7 -8 -8 -7 -6 -6 -4 -3 -2 -3 -4 -6 -4 -3 -4 -3 -2
-3 -3 -3 -4 -4 -4 -3 -3 -2 1 6 9 10 7 4 1 1 2 2 1 -0 -1 -0 1 2 1 2 4 4 4 6 6 7 7 6 7 7 6 3 -0 -1 -2 -3 -5 -6 -6 -7 -8 -9 -7 -5 -6 -5 -4 -5 -5 -4 -5 -5 -7 -9 -11 -5
-3 -4 -4 -4 -4 -4 -4 -4 -1 5 9 10 12 11 8 8 7 6 6 5 5 4 4 4 4 5 5 4 4 3 4 5 6 7 7 7 7 7 7 7 3 -0 -2 -3 -5 -6 -7 -7 -8 -7 -6 -7 -6 -6 -5 -5 -5 -6 -7 -8 -9 -8 -9
-3 -4 -4 -4 -5 -5 -4 -4 -0 5 9 10 12 13 10 8 7 6 6 6 6 5 5 5 4 3 4 4 6 6 4 3 3 4 5 5 5 5 5 5 5 5 2 0 -2 -4 -5 -6 -7 -8 -7 -5 -6 -4 -7 -6 -7 -7 -7 -7 -8 -7 -6
-4 -4 -5 -5 -5 -5 -4 -4 -2 4 8 10 11 12 12 9 8 7 6 5 4 4 2 1 0 -0 -0 1 1 2 1 1 0 -0 -0 -1 -1 -1 -0 1 2 1 1 1 -1 -3 -5 -4 -4 -6 -5 -4 -3 -6 -7 -8 -8 -7 -7 -7 -7 -5 -4
-5 -4 -4 -5 -5 -5 -4 -3 -0 6 9 10 11 12 11 8 6 5 3 2 2 1 -0 -1 -1 -1 -2 -1 -1 0 1 -0 -1 -1 -2 -2 -3 -3 -3 -3 -3 -4 -4 -4 -3 -4 -5 -5 -4 -4 -4 -3 -3 -4 -5 -4 -6 -5 -6 -5 -4 -4 -2
-3 -4 -4 -4 -4 -5 -5 -3 0 5 8 10 11 11 7 5 3 2 1 -1 -1 -2 -2 -2 -2 -3 -3 -3 -2 -0 2 2 1 -1 -2 -3 -4 -4 -3 -4 -1 1 4 0 -1 -2 -4 -4 -3 1 -1 -1 -2 -3 -2 -2 -2 -2 -4 -6 -8 -9 -6
-3 -3 -3 -4 -4 -5 -4 -4 -1 2 6 8 10 9 4 3 1 0 -1 -2 -2 -2 -2 -2 -2 -3 -3 -3 -3 0 2 3 2 -1 -2 -4 -4 -4 -4 -4 -3 0 4 7 8 9 10 10 11 9 6 5 6 3 3 -1 -4 -7 -5 -8 -10 -9 -9
-4 -3 -3 -4 -4 -4 -5 -4 -2 0 2 7 9 7 3 2 0 -1 -2 -3 -3 -3 -3 -3 0 0 -2 -3 -3 1 2 4 2 -0 -1 -3 -4 -5 -6 -5 -3 -3 -3 1 2 2 2 2 2 3 3 5 7 3 2 -3 -8 -5 -6 -9 -9 -12 -10
-4 -4 -3 -3 -4 -2 -3 -4 -2 -0 0 5 8 6 3 1 -0 -2 -3 -4 -4 -4 -4 -4 -2 -0 -1 -1 -1 1 5 6 3 -0 -2 -3 -5 -6 -7 -6 -5 -5 -5 -5 -5 -4 -3 -3 -1 -1 -2 -2 0 1 1 -1 -3 -4 -6 -9 -10 -10 -11
-5 -6 -5 -4 -5 -5 -4 -5 -5 -3 -1 3 7 9 4 1 -2 -4 -5 -6 -6 -7 -6 -6 -5 -3 -1 -0 -0 0 2 4 3 -1 -2 -2 -4 -6 -7 -4 -4 -4 -5 -6 -6 -7 -6 -6 -4 -4 -2 -2 -3 -2 -2 -2 -3 -4 -5 -7 -9 -10 -11
-7 -7 -7 -6 -6 -6 -6 -5 -6 -5 -1 -0 1 5 3 -2 -3 -4 -5 -6 -7 -7 -8 -8 -7 -7 -3 -2 -1 -1 -0 5 6 2 -0 -2 -4 -5 -4 -3 -6 -7 -5 -7 -8 -8 -8 -8 -7 -7 -6 -6 -5 -4 -4 -4 -3 -3 -4 -6 -8 -10 -11
-8 -9 -8 -8 -7 -6 -6 -4 -3 -4 -2 -1 0 4 3 -1 -4 -3 -6 -7 -8 -8 -9 -8 -8 -8 -5 -3 -2 -2 1 5 4 1 -2 -5 -3 -3 -3 -5 -6 -7 -8 -9 -9 -10 -10 -10 -10 -9 -9 -8 -7 -6 -5 -4 -5 -4 -5 -5 -5 -7 -10
-10 -10 -10 -8 -7 -6 -5 -4 -3 -1 -2 -1 1 2 2 2 -0 0 -2 -6 -8 -8 -9 -8 -8 -7 -4 -4 -3 -3 -1 -1 -3 -4 -5 -4 -4 -4 -4 -5 -7 -8 -10 -11 -11 -12 -13 -12 -11 -11 -11 -10 -9 -7 -6 -5 -5 -5 -5 -5 -5 -4 -5
-9 -8 -8 -7 -5 -3 -2 -2 -3 -0 2 0 1 1 2 2 1 1 -3 -6 -8 -8 -8 -8 -9 -7 -5 -4 -4 -3 -4 -4 -4 -5 -4 -4 -5 -5 -5 -7 -9 -10 -11 -11 -12 -13 -13 -13 -12 -11 -11 -10 -9 -8 -7 -7 -7 -7 -7 -8 -8 -8 -7
-8 -8 -7 -6 -6 -4 -3 -2 -3 -5 -2 2 1 2 2 1 1 -0 -1 -4 -7 -7 -8 -6 -5 -4 -4 -4 -4 -4 -4 -5 -6 -6 -6 -6 -6 -5 -8 -9 -11 -12 -13 -14 -14 -14 -14 -13 -12 -11 -10 -9 -8 -7 -7 -8 -9 -9 -9 -10 -10 -10 -10
-7 -7 -7 -6 -5 -5 -4 -3 -5 -6 -7 -3 -1 -0 0 0 -1 -3 -4 -4 -6 -5 -5 -5 -5 -5 -5 -6 -6 -7 -9 -9 -9 -7 -6 -6 -6 -7 -9 -10 -11 -12 -13 -14 -14 -14 -14 -13 -12 -11 -10 -9 -8 -10 -11 -11 -11 -11 -11 -11 -12 -12 -12
-7 -7 -6 -6 -5 -5 -4 -4 -5 -6 -7 -7 -8 -10 -8 -9 -10 -5 -5 -7 -9 -8 -8 -8 -7 -7 -6 -7 -6 -7 -7 -7 -6 -7 -8 -8 -8 -9 -10 -10 -11 -12 -13 -13 -13 -12 -12 -12 -11 -10 -10 -11 -12 -13 -12 -11 -11 -12 -12 -12 -12 -14 -15
-7 -6 -6 -6 -6 -6 -7 -7 -7 -7 -8 -9 -11 -11 -12 -12 -10 -11 -11 -11 -10 -10 -9 -9 -7 -8 -9 -10 -11 -11 -11 -11 -10 -9 -9 -10 -10 -11 -11 -8 -7 -7 -9 -10 -11 -12 -11 -11 -12 -13 -13 -12 -13 -13 -13 -12 -12 -13 -13 -13 -13 -16 -17
-6 -5 -5 -6 -7 -8 -9 -8 -8 -8 -4 -5 -3 -5 -7 -9 -9 -10 -10 -8 -6 -7 -8 -9 -11 -12 -12 -13 -13 -13 -13 -13 -12 -12 -11 -11 -12 -13 -13 -13 -15 -14 -14 -13 -13 -14 -14 -14 -14 -14 -14 -14 -15 -14 -14 -14 -14 -13 -14 -14 -14 -17 -17
-4 -4 -5 -6 -6 -6 -8 -9 -7 -3 -3 -3 -3 -3 -4 -4 -4 -4 -6 -6 -5 -7 -10 -12 -14 -14 -15 -15 -15 -15 -14 -14 -13 -13 -13 -13 -10 -11 -14 -14 -13 -13 -13 -13 -13 -13 -13 -13 -14 -14 -15 -16 -16 -16 -16 -14 -12 -15 -15 -16 -17 -18 -18
0 0 -1 -3 -5 -4 -3 -3 -3 -4 -3 -4 -4 -4 -4 -4 -5 -5 -5 -5 -8 -10 -13 -14 -15 -15 -15 -15 -15 -15 -15 -13 -13 -13 -13 -13 -14 -14 -13 -11 -13 -13 -13 -13 -13 -13 -13 -13 -14 -15 -15 -16 -16 -16 -16 -18 -16 -16 -16 -18 -18 -19 -18
-0 -0 -1 -1 -2 -4 -5 -4 -4 -4 -4 -4 -4 -4 -4 -4 -4 -5 -5 -6 -6 -12 -14 -14 -16 -16 -16 -15 -16 -14 -13 -13 -13 -13 -13 -14 -14 -14 -13 -13 -14 -12 -13 -13 -14 -14 -14 -15 -15 -15 -15 -15 -15 -15 -16 -17 -18 -18 -18 -18 -17 -18 -18
-0 -1 -1 -1 -1 -1 -2 -4 -4 -3 -3 -3 -4 -4 -5 -5 -5 -6 -6 -6 -10 -14 -15 -15 -15 -16 -15 -15 -15 -14 -14 -13 -13 -13 -13 -13 -14 -14 -13 -13 -12 -11 -13 -13 -14 -14 -15 -15 -15 -15 -15 -15 -15 -16 -17 -17 -18 -18 -18 -18 -19 -19 -18
-2 -2 -2 -2 -2 -3 -3 -3 -3 -4 -4 -4 -5 -5 -5 -6 -7 -6 -6 -8 -12 -14 -15 -15 -16 -15 -15 -15 -14 -13 -13 -13 -13 -13 -13 -13 -13 -13 -13 -13 -13 -14 -14 -14 -14 -14 -14 -14 -14 -14 -16 -16 -16 -16 -17 -18 -18 -18 -19 -20 -19 -20 -19
-9 -5 -3 -5 -5 -4 -4 -4 -5 -5 -5 -5 -5 -6 -6 -6 -9 -12 -12 -12 -13 -13 -14 -15 -15 -15 -14 -14 -14 -13 -13 -13 -13 -13 -13 -13 -13 -13 -13 -14 -14 -14 -14 -14 -14 -14 -15 -15 -15 -15 -15 -16 -17 -17 -18 -18 -18 -18 -18 -19 -19 -20 -20
-10 -9 -6 -4 -4 -4 -4 -4 -4 -5 -5 -5 -5 -5 -5 -11 -13 -14 -14 -14 -14 -14 -13 -12 -13 -13 -13 -12 -12 -12 -12 -12 -13 -13 -13 -13 -13 -14 -14 -14 -14 -14 -14 -14 -14 -14 -14 -14 -15 -15 -15 -16 -16 -17 -17 -18 -18 -18 -18 -18 -19 -19 -20
MSLP
1043.13 1043.09 1043.05 1043.01 1042.97 1042.93 1042.89 1042.81 1042.77 1042.73 1042.69 1042.61 1042.49 1042.33 1042.17 1042.09 1042.01 1041.97 1041.93 1041.81 1041.65 1041.53 1041.45 1041.41 1041.21 1041.01 1040.93 1040.85 1040.73 1040.45 1040.21 1040.01 1039.69 1039.41 1039.09 1038.73 1038.45 1038.17 1037.89 1037.73 1037.53 1036.65 1034.49 1032.93 1034.09 1033.53 1033.37 1033.21 1033.13 1032.57 1032.65 1031.97 1031.61 1031.33 1031.09 1030.81 1030.45 1029.97 1029.57 1029.05 1028.53 1027.93 1027.41
1043.17 1043.09 1043.05 1043.01 1042.89 1042.85 1042.81 1042.77 1042.65 1042.57 1042.49 1042.45 1042.29 1042.13 1042.01 1041.93 1041.85 1041.77 1041.65 1041.57 1041.41 1041.33 1041.29 1041.13 1040.97 1040.73 1040.65 1040.57 1040.45 1040.17 1040.05 1039.81 1039.61 1039.37 1039.01 1038.61 1038.21 1037.81 1037.49 1037.37 1037.21 1036.53 1035.89 1033.17 1033.13 1033.77 1033.25 1033.21 1033.13 1032.41 1032.21 1032.09 1031.37 1031.01 1030.89 1030.49 1030.13 1029.73 1029.41 1028.81 1028.21 1027.77 1027.21
1043.09 1043.05 1043.01 1042.97 1042.89 1042.81 1042.73 1042.61 1042.57 1042.45 1042.37 1042.21 1042.05 1041.89 1041.73 1041.61 1041.53 1041.41 1041.29 1041.21 1041.01 1040.93 1040.93 1040.81 1040.61 1040.37 1040.29 1040.29 1040.13 1039.81 1039.65 1039.49 1039.25 1038.97 1038.61 1038.21 1037.85 1037.49 1037.13 1036.89 1036.81 1036.57 1035.41 1034.61 1032.85 1033.57 1033.17 1033.05 1032.77 1032.69 1031.85 1031.77 1031.45 1031.05 1030.65 1030.13 1029.69 1029.37 1028.93 1028.57 1028.09 1027.53 1026.97
1043.05 1043.05 1043.01 1042.93 1042.81 1042.65 1042.53 1042.45 1042.33 1042.21 1042.05 1041.89 1041.73 1041.61 1041.37 1041.25 1041.13 1040.97 1040.85 1040.73 1040.65 1040.61 1040.57 1040.45 1040.29 1039.97 1039.97 1039.89 1039.73 1039.41 1039.25 1039.05 1038.85 1038.57 1038.25 1037.81 1037.33 1037.01 1036.65 1036.45 1036.41 1036.09 1035.69 1034.53 1033.65 1032.33 1033.57 1032.69 1032.77 1032.05 1031.97 1031.57 1031.01 1030.85 1030.25 1029.85 1029.29 1029.01 1028.69 1028.21 1027.81 1027.33 1026.85
1042.93 1042.89 1042.81 1042.73 1042.57 1042.41 1042.25 1042.09 1042.01 1041.89 1041.73 1041.57 1041.41 1041.29 1041.17 1041.01 1040.85 1040.65 1040.49 1040.37 1040.29 1040.21 1040.13 1040.01 1039.81 1039.57 1039.61 1039.49 1039.29 1038.89 1038.77 1038.49 1038.33 1038.05 1037.81 1037.37 1036.93 1036.65 1036.25 1036.09 1035.89 1035.65 1035.53 1034.89 1033.89 1032.61 1032.73 1033.01 1032.37 1032.05 1031.61 1031.25 1030.89 1030.13 1029.85 1029.49 1029.09 1028.73 1028.33 1027.81 1027.45 1027.17 1026.81
1042.77 1042.69 1042.57 1042.41 1042.25 1042.09 1041.93 1041.77 1041.69 1041.57 1041.41 1041.29 1041.17 1041.05 1040.85 1040.65 1040.49 1040.29 1040.13 1040.01 1039.89 1039.81 1039.73 1039.57 1039.37 1039.21 1039.13 1039.01 1038.73 1038.29 1038.13 1037.97 1037.77 1037.61 1037.33 1036.97 1036.53 1036.17 1035.89 1035.69 1035.53 1035.41 1035.17 1034.89 1033.85 1033.45 1032.25 1032.21 1032.45 1031.45 1031.17 1031.09 1030.69 1030.21 1029.45 1028.89 1028.73 1028.37 1027.97 1027.61 1027.21 1027.05 1026.81
1042.49 1042.37 1042.29 1042.09 1041.97 1041.77 1041.61 1041.45 1041.29 1041.17 1041.05 1040.93 1040.81 1040.69 1040.57 1040.37 1040.13 1039.93 1039.85 1039.69 1039.53 1039.37 1039.25 1039.09 1038.93 1038.73 1038.57 1038.37 1038.13 1037.85 1037.57 1037.41 1037.21 1037.01 1036.73 1036.45 1036.09 1035.93 1035.61 1035.37 1035.13 1035.01 1034.77 1034.29 1033.65 1032.93 1032.73 1032.01 1031.65 1031.89 1030.61 1030.13 1030.53 1030.05 1029.69 1029.09 1028.17 1027.77 1027.77 1027.65 1027.41 1026.73 1026.41
1042.13 1042.01 1041.93 1041.73 1041.57 1041.33 1041.21 1041.05 1040.89 1040.81 1040.69 1040.53 1040.41 1040.33 1040.21 1040.01 1039.73 1039.57 1039.45 1039.29 1039.09 1038.93 1038.73 1038.57 1038.37 1038.13 1037.85 1037.65 1037.41 1037.21 1036.89 1036.85 1036.53 1036.33 1036.01 1035.69 1035.53 1035.29 1035.13 1034.85 1034.57 1034.45 1034.17 1033.73 1033.25 1032.77 1032.25 1031.77 1031.57 1031.05 1030.61 1030.21 1030.17 1029.73 1029.21 1029.21 1028.85 1027.93 1027.33 1027.25 1027.05 1026.85 1026.33
1041.77 1041.69 1041.53 1041.33 1041.17 1040.97 1040.85 1040.73 1040.57 1040.45 1040.33 1040.21 1040.05 1039.97 1039.85 1039.65 1039.37 1039.17 1038.97 1038.73 1038.53 1038.29 1038.05 1037.81 1037.57 1037.33 1037.05 1036.81 1036.45 1036.17 1035.89 1035.69 1035.65 1035.61 1035.29 1034.93 1034.93 1034.65 1034.53 1034.25 1034.01 1033.89 1033.61 1033.09 1032.93 1032.33 1032.05 1031.61 1031.01 1030.69 1030.45 1029.97 1029.97 1029.73 1029.21 1028.89 1028.93 1028.13 1027.65 1027.17 1026.57 1026.17 1026.29
1041.45 1041.33 1041.17 1041.01 1040.81 1040.65 1040.49 1040.37 1040.21 1040.01 1039.81 1039.57 1039.49 1039.45 1039.33 1039.09 1038.77 1038.53 1038.25 1037.89 1037.57 1037.29 1037.05 1036.77 1036.61 1036.29 1036.05 1035.77 1035.45 1035.21 1034.93 1034.69 1034.53 1034.37 1034.29 1034.05 1034.09 1033.97 1033.85 1033.61 1033.41 1033.21 1032.97 1032.73 1032.37 1032.05 1031.89 1031.37 1030.45 1030.33 1030.33 1029.97 1029.53 1029.45 1029.21 1028.93 1028.69 1028.09 1027.33 1027.13 1026.37 1025.77 1025.93
1041.09 1040.93 1040.81 1040.65 1040.45 1040.25 1040.05 1039.89 1039.77 1039.61 1039.17 1038.57 1038.17 1037.97 1037.89 1037.97 1037.69 1037.41 1037.09 1036.77 1036.61 1036.41 1036.21 1035.85 1035.61 1035.41 1035.21 1034.93 1034.61 1034.33 1034.01 1033.77 1033.57 1033.37 1033.33 1033.17 1033.01 1032.93 1033.01 1032.93 1032.69 1032.21 1032.33 1032.33 1031.77 1031.57 1031.57 1031.05 1030.13 1029.57 1030.09 1029.89 1029.45 1029.29 1029.21 1028.89 1028.45 1028.01 1027.49 1027.09 1026.57 1025.41 1024.97
1040.61 1040.49 1040.37 1040.25 1040.09 1039.85 1039.57 1039.41 1039.25 1038.97 1038.37 1037.89 1037.45 1037.17 1036.93 1036.65 1036.41 1036.25 1036.09 1035.85 1035.57 1035.29 1035.01 1034.73 1034.49 1034.33 1034.25 1034.05 1033.85 1033.61 1033.33 1033.05 1032.85 1032.69 1032.53 1032.37 1032.25 1032.17 1032.13 1032.13 1032.05 1031.69 1031.57 1031.73 1031.45 1030.85 1030.65 1030.93 1029.81 1029.29 1029.77 1029.61 1029.57 1029.13 1028.93 1028.65 1028.41 1028.01 1027.57 1026.97 1026.49 1025.97 1025.41
1040.21 1040.05 1039.97 1039.93 1039.73 1039.41 1039.05 1038.89 1038.73 1038.49 1037.89 1037.41 1036.97 1036.57 1036.37 1036.05 1035.81 1035.73 1035.49 1035.29 1035.05 1034.77 1034.49 1034.25 1034.09 1033.97 1033.85 1033.57 1033.41 1033.13 1032.85 1032.69 1032.49 1032.41 1032.25 1032.01 1031.85 1031.77 1031.77 1031.69 1031.61 1031.53 1031.57 1031.37 1030.97 1030.41 1029.81 1030.13 1030.05 1029.29 1029.09 1029.61 1029.45 1029.17 1028.73 1028.37 1028.01 1027.69 1027.25 1026.77 1026.29 1025.53 1025.25
1039.81 1039.61 1039.53 1039.41 1039.29 1038.97 1038.57 1038.33 1038.25 1038.05 1037.45 1036.93 1036.49 1036.09 1035.77 1035.45 1035.25 1035.09 1035.01 1034.93 1034.81 1034.61 1034.41 1034.33 1034.21 1034.05 1033.69 1033.53 1033.37 1033.05 1032.81 1032.61 1032.41 1032.25 1032.13 1031.93 1031.85 1031.73 1031.65 1031.61 1031.45 1031.41 1031.45 1031.29 1030.93 1030.41 1029.57 1029.21 1030.21 1029.09 1028.73 1029.13 1029.37 1029.01 1028.45 1028.13 1027.33 1027.17 1026.69 1026.25 1025.61 1025.13 1025.01
1039.37 1039.13 1039.01 1038.85 1038.77 1038.57 1038.01 1037.65 1037.77 1037.49 1036.89 1036.37 1035.97 1035.57 1035.29 1035.09 1035.01 1034.97 1034.93 1034.89 1034.69 1034.49 1034.33 1034.25 1034.13 1033.93 1033.57 1033.25 1033.13 1032.85 1032.69 1032.45 1032.17 1032.05 1031.77 1031.57 1031.41 1031.41 1031.33 1031.29 1031.21 1031.25 1031.13 1030.93 1030.73 1030.25 1029.65 1029.29 1029.53 1029.17 1028.69 1028.53 1028.45 1028.21 1027.73 1027.41 1026.93 1026.61 1026.29 1025.73 1025.13 1024.73 1024.61
1038.93 1038.69 1038.53 1038.33 1038.29 1038.13 1037.57 1037.09 1037.29 1037.05 1036.49 1035.97 1035.61 1035.29 1035.13 1035.01 1034.93 1034.89 1034.81 1034.65 1034.45 1034.25 1034.13 1034.01 1033.85 1033.65 1033.33 1033.05 1032.81 1032.57 1032.45 1032.17 1031.89 1031.65 1031.33 1031.05 1030.93 1030.89 1030.77 1030.61 1030.57 1030.53 1030.21 1030.05 1029.69 1029.33 1028.97 1028.57 1028.29 1027.93 1027.37 1027.09 1027.05 1027.09 1026.97 1026.77 1026.37 1026.13 1025.93 1025.41 1024.57 1023.73 1023.81
1038.53 1038.33 1038.13 1037.93 1037.81 1037.69 1037.25 1036.73 1036.73 1036.77 1036.29 1035.73 1035.29 1035.01 1034.93 1034.85 1034.73 1034.61 1034.45 1034.21 1033.97 1033.81 1033.69 1033.57 1033.41 1033.25 1032.97 1032.69 1032.41 1032.21 1032.05 1031.73 1031.57 1031.21 1030.89 1030.65 1030.41 1030.25 1030.05 1029.73 1029.93 1029.85 1029.57 1029.13 1028.61 1028.01 1027.49 1026.97 1026.53 1026.37 1026.21 1026.13 1026.09 1026.21 1026.29 1026.13 1025.77 1025.33 1025.45 1024.73 1023.89 1022.97 1023.41
1038.21 1037.97 1037.81 1037.65 1037.37 1037.29 1037.05 1036.37 1036.17 1036.29 1035.97 1035.41 1034.93 1034.73 1034.65 1034.53 1034.41 1034.13 1034.01 1033.69 1033.53 1033.41 1033.25 1033.09 1032.93 1032.77 1032.53 1032.29 1032.01 1031.85 1031.57 1031.25 1031.09 1030.65 1030.33 1030.05 1029.81 1029.49 1029.45 1029.17 1029.37 1029.21 1028.97 1028.73 1028.29 1028.01 1027.65 1027.41 1027.13 1026.93 1026.69 1026.41 1026.13 1025.97 1026.05 1026.17 1025.53 1025.05 1025.29 1024.37 1024.09 1023.21 1022.89
1037.97 1037.57 1037.29 1037.13 1036.97 1036.77 1036.65 1036.13 1035.69 1035.69 1035.65 1035.21 1034.61 1034.33 1034.25 1034.13 1033.93 1033.61 1033.41 1033.37 1033.05 1033.01 1032.93 1032.73 1032.61 1032.49 1032.33 1032.09 1031.77 1031.53 1031.13 1030.65 1030.57 1030.33 1030.13 1029.97 1029.69 1029.17 1028.89 1028.85 1028.93 1028.65 1028.29 1028.09 1027.85 1027.49 1027.45 1027.01 1026.89 1026.65 1026.37 1026.05 1025.89 1025.77 1025.73 1025.65 1025.21 1024.97 1024.89 1024.05 1023.57 1023.53 1023.29
1037.73 1037.41 1036.85 1036.77 1036.77 1036.53 1036.37 1036.09 1035.49 1035.21 1035.13 1034.81 1034.25 1033.81 1033.69 1033.65 1033.61 1033.29 1033.13 1033.13 1032.93 1032.61 1032.53 1032.49 1032.33 1032.25 1032.09 1031.89 1031.61 1031.33 1031.01 1030.65 1030.49 1030.21 1029.89 1029.73 1029.25 1028.81 1028.21 1028.57 1028.57 1028.49 1028.29 1027.77 1027.73 1027.33 1027.25 1026.93 1026.73 1026.49 1026.13 1025.73 1025.49 1025.29 1025.21 1025.05 1024.93 1024.73 1024.53 1023.97 1023.37 1023.25 1023.33
1037.57 1037.29 1036.65 1036.41 1036.41 1036.21 1035.85 1035.69 1035.29 1034.69 1034.45 1034.25 1034.05 1033.57 1033.41 1033.33 1033.21 1033.01 1032.89 1032.69 1032.53 1032.41 1032.21 1032.17 1032.13 1032.05 1031.97 1031.73 1031.45 1031.17 1030.89 1030.37 1029.89 1029.73 1029.49 1029.33 1029.09 1028.93 1028.65 1028.65 1028.45 1028.09 1028.25 1027.77 1027.29 1027.01 1026.69 1026.41 1026.21 1026.01 1025.81 1025.53 1025.29 1025.01 1024.81 1024.61 1024.41 1024.21 1024.05 1023.77 1023.37 1023.09 1022.81
1037.41 1037.09 1036.45 1035.97 1035.85 1035.61 1035.13 1034.81 1034.61 1034.13 1033.77 1033.57 1033.41 1033.09 1032.89 1032.85 1032.73 1032.69 1032.61 1032.41 1032.21 1032.09 1032.01 1031.93 1031.85 1031.73 1031.65 1031.45 1031.21 1030.93 1030.57 1029.97 1029.61 1029.61 1029.61 1029.41 1029.33 1029.01 1028.85 1028.61 1028.33 1028.01 1027.77 1027.53 1027.13 1026.77 1026.37 1026.13 1025.89 1025.61 1025.41 1025.21 1024.93 1024.69 1024.49 1024.21 1023.93 1023.73 1023.53 1023.37 1023.17 1022.97 1022.61
1037.09 1036.77 1036.05 1035.37 1034.89 1034.61 1034.25 1033.93 1033.69 1033.45 1033.13 1032.93 1032.77 1032.57 1032.45 1032.33 1032.25 1032.17 1032.13 1032.01 1031.73 1031.73 1031.61 1031.65 1031.57 1031.45 1031.29 1031.13 1030.93 1030.65 1030.33 1030.05 1029.97 1029.81 1029.53 1029.21 1028.97 1028.77 1028.57 1028.37 1028.05 1027.85 1027.53 1027.21 1026.85 1026.57 1026.09 1025.77 1025.61 1025.29 1025.01 1024.85 1024.57 1024.33 1024.13 1023.85 1023.61 1023.37 1023.17 1022.93 1022.77 1022.61 1022.41
1036.41 1036.01 1035.33 1034.61 1033.85 1033.53 1033.33 1033.09 1032.97 1032.69 1032.45 1032.25 1032.17 1032.09 1031.97 1031.85 1031.77 1031.69 1031.69 1031.73 1031.57 1031.49 1031.45 1031.29 1031.25 1031.13 1030.93 1030.69 1030.45 1030.21 1029.97 1029.73 1029.57 1029.29 1028.97 1028.81 1028.61 1028.41 1028.21 1028.05 1027.73 1027.53 1027.29 1026.93 1026.53 1026.17 1025.77 1025.45 1025.33 1025.09 1024.69 1024.49 1024.29 1024.05 1023.85 1023.61 1023.37 1023.21 1023.05 1022.85 1022.65 1022.53 1022.33
1035.81 1035.37 1034.73 1034.13 1033.53 1032.97 1032.65 1032.53 1032.45 1032.25 1032.09 1031.93 1031.77 1031.69 1031.53 1031.49 1031.45 1031.37 1031.29 1031.21 1031.25 1031.37 1031.21 1031.05 1030.81 1030.61 1030.37 1030.17 1029.93 1029.69 1029.49 1029.29 1029.09 1028.93 1028.69 1028.45 1028.21 1028.05 1027.85 1027.65 1027.45 1027.21 1027.01 1026.61 1026.21 1025.85 1025.49 1025.13 1024.93 1024.77 1024.45 1024.25 1024.01 1023.77 1023.57 1023.37 1023.13 1023.01 1022.81 1022.65 1022.45 1022.25 1022.17
1035.13 1034.73 1034.25 1033.69 1033.13 1032.65 1032.17 1031.93 1031.97 1031.89 1031.85 1031.77 1031.61 1031.41 1031.29 1031.21 1031.29 1031.33 1031.33 1031.29 1031.13 1031.01 1030.85 1030.61 1030.41 1030.17 1029.97 1029.77 1029.61 1029.45 1029.25 1028.97 1028.65 1028.41 1028.13 1027.85 1027.69 1027.53 1027.33 1027.17 1027.01 1026.81 1026.61 1026.13 1025.81 1025.49 1025.09 1024.77 1024.61 1024.41 1024.21 1024.01 1023.85 1023.61 1023.41 1023.29 1022.97 1022.77 1022.45 1022.45 1022.13 1021.81 1021.53
1034.65 1034.17 1033.69 1033.21 1032.65 1032.21 1031.89 1031.61 1031.61 1031.61 1031.57 1031.49 1031.41 1031.29 1031.29 1031.37 1031.41 1031.33 1031.29 1031.21 1031.05 1030.89 1030.61 1030.33 1030.09 1029.85 1029.61 1029.41 1029.13 1028.97 1028.69 1028.37 1028.01 1027.69 1027.37 1027.17 1027.01 1026.85 1026.73 1026.61 1026.53 1026.33 1026.05 1025.65 1025.29 1024.89 1024.61 1024.41 1024.25 1024.05 1023.85 1023.65 1023.57 1023.37 1023.21 1023.21 1022.89 1022.57 1022.21 1022.09 1021.81 1021.49 1020.89
1033.93 1033.57 1033.17 1032.77 1032.37 1032.09 1031.77 1031.41 1031.33 1031.33 1031.37 1031.25 1031.21 1031.21 1031.25 1031.25 1031.25 1031.21 1031.13 1030.93 1030.73 1030.53 1030.17 1029.85 1029.49 1029.29 1029.13 1028.97 1028.73 1028.41 1028.21 1027.89 1027.61 1027.25 1026.89 1026.61 1026.49 1026.33 1026.21 1026.01 1025.81 1025.61 1025.33 1025.05 1024.85 1024.53 1024.29 1024.01 1023.89 1023.65 1023.49 1023.37 1023.25 1023.05 1022.97 1022.97 1022.77 1022.45 1022.01 1021.89 1021.65 1021.17 1020.53
1033.41 1033.09 1032.89 1032.73 1032.33 1032.05 1031.57 1031.21 1030.93 1030.85 1031.13 1031.01 1030.97 1030.97 1030.89 1030.81 1030.77 1030.73 1030.61 1030.45 1030.25 1029.89 1029.53 1029.29 1029.01 1028.77 1028.61 1028.49 1028.21 1027.85 1027.57 1027.33 1027.05 1026.69 1026.45 1026.21 1025.97 1025.85 1025.73 1025.61 1025.53 1025.29 1025.05 1024.89 1024.73 1024.37 1024.09 1023.77 1023.61 1023.29 1023.21 1023.05 1022.85 1022.69 1022.69 1022.69 1022.53 1022.29 1022.01 1021.61 1021.57 1020.97 1020.57
1032.81 1032.37 1032.53 1032.37 1031.81 1031.89 1031.57 1030.97 1030.49 1030.65 1030.73 1030.65 1030.61 1030.53 1030.49 1030.37 1030.25 1030.13 1030.01 1029.85 1029.77 1029.65 1029.13 1028.85 1028.69 1028.33 1028.29 1028.05 1027.89 1027.49 1027.09 1026.81 1026.57 1026.21 1025.93 1025.73 1025.49 1025.33 1025.25 1025.13 1024.97 1024.81 1024.57 1024.45 1024.25 1023.97 1023.73 1023.41 1023.21 1022.89 1022.81 1022.69 1022.49 1022.25 1022.33 1022.29 1022.17 1021.85 1021.81 1021.49 1021.13 1020.77 1020.37
1032.13 1031.89 1031.85 1031.89 1031.25 1030.81 1030.93 1030.65 1030.45 1030.37 1030.25 1030.17 1030.09 1030.01 1029.93 1029.85 1029.77 1029.73 1029.65 1029.57 1029.45 1029.09 1028.89 1028.57 1028.37 1027.93 1027.93 1027.69 1027.49 1027.05 1026.61 1026.37 1026.05 1025.69 1025.45 1025.17 1025.09 1024.97 1024.81 1024.57 1024.45 1024.29 1024.21 1023.97 1023.77 1023.53 1023.33 1023.09 1022.89 1022.57 1022.45 1022.29 1022.05 1021.89 1021.73 1021.85 1021.81 1021.69 1021.49 1021.25 1020.93 1020.57 1020.09
1031.57 1031.37 1031.29 1031.17 1031.05 1030.65 1030.17 1030.09 1030.09 1030.01 1029.85 1029.69 1029.57 1029.49 1029.37 1029.29 1029.25 1029.21 1029.21 1029.17 1029.29 1028.69 1028.09 1028.25 1027.97 1027.61 1027.37 1027.25 1026.93 1026.45 1026.21 1025.89 1025.57 1025.25 1025.05 1024.81 1024.65 1024.37 1024.33 1024.21 1023.97 1023.85 1023.77 1023.53 1023.33 1023.09 1022.89 1022.77 1022.57 1022.33 1022.09 1021.93 1021.69 1021.49 1021.29 1021.29 1021.25 1021.25 1021.13 1020.89 1020.69 1020.33 1019.97
1031.17 1031.01 1030.81 1030.65 1030.45 1030.29 1029.97 1029.61 1029.49 1029.49 1029.37 1029.25 1029.13 1029.01 1028.93 1028.81 1028.77 1028.77 1028.77 1028.81 1028.61 1028.33 1027.77 1027.69 1027.57 1027.17 1026.85 1026.73 1026.33 1025.97 1025.73 1025.37 1025.13 1024.89 1024.65 1024.49 1024.25 1023.89 1023.77 1023.73 1023.57 1023.49 1023.29 1023.05 1022.89 1022.73 1022.45 1022.29 1022.09 1021.89 1021.65 1021.45 1021.29 1021.13 1020.85 1020.81 1020.77 1020.73 1020.73 1020.53 1020.21 1019.89 1019.73
1030.81 1030.57 1030.37 1030.09 1029.93 1029.73 1029.53 1029.33 1029.21 1029.09 1028.97 1028.89 1028.81 1028.69 1028.61 1028.49 1028.21 1028.17 1028.25 1028.33 1027.93 1027.81 1027.29 1027.13 1026.97 1026.61 1026.37 1026.09 1025.85 1025.49 1025.25 1024.89 1024.61 1024.41 1024.21 1024.01 1023.77 1023.53 1023.37 1023.25 1023.25 1023.17 1022.85 1022.65 1022.41 1022.21 1021.93 1021.77 1021.57 1021.45 1021.25 1020.97 1020.85 1020.73 1020.57 1020.37 1020.29 1020.33 1020.25 1020.05 1019.89 1019.57 1019.29
1030.21 1030.17 1030.01 1029.65 1029.41 1029.29 1029.17 1028.97 1028.81 1028.69 1028.53 1028.45 1028.37 1028.33 1028.25 1028.17 1027.85 1027.49 1027.49 1027.65 1027.53 1027.25 1026.89 1026.53 1026.21 1025.93 1025.61 1025.49 1025.17 1024.85 1024.69 1024.33 1024.09 1023.97 1023.81 1023.57 1023.33 1023.13 1023.01 1022.85 1022.77 1022.57 1022.41 1022.17 1021.93 1021.69 1021.45 1021.29 1021.13 1020.93 1020.81 1020.61 1020.37 1020.21 1020.05 1019.89 1019.85 1019.81 1019.77 1019.57 1019.41 1019.29 1018.97
1029.85 1029.69 1029.45 1029.29 1029.05 1028.89 1028.69 1028.53 1028.33 1028.17 1028.05 1027.97 1027.89 1027.85 1027.93 1027.65 1027.21 1027.21 1026.93 1026.93 1026.77 1026.65 1026.21 1025.93 1025.49 1025.25 1024.85 1024.73 1024.49 1024.29 1024.09 1023.89 1023.69 1023.49 1023.37 1023.17 1023.05 1022.69 1022.53 1022.37 1022.25 1022.05 1021.89 1021.69 1021.49 1021.17 1020.97 1020.77 1020.57 1020.45 1020.33 1020.17 1019.93 1019.73 1019.61 1019.49 1019.41 1019.33 1019.29 1019.21 1019.05 1018.97 1018.77
Wind_Speed
4 4 4 5 4 4 4 4 5 4 4 5 5 6 5 5 5 6 6 5 6 5 5 6 7 8 7 6 7 7 6 6 7 7 7 6 7 8 7 8 9 14 19 14 5 10 9 10 12 11 10 13 11 11 11 14 12 13 12 12 11 12 21
3 3 4 4 4 5 5 5 6 5 4 5 6 7 5 5 6 7 7 6 7 6 6 6 8 8 7 6 8 8 8 7 7 7 7 8 8 8 8 7 9 12 13 22 9 9 9 10 9 13 9 11 15 13 11 13 12 11 10 11 11 11 11
4 4 4 5 6 6 5 6 6 5 5 6 6 7 6 6 6 7 7 7 8 7 6 7 8 9 7 5 7 9 8 7 8 8 9 10 9 10 10 9 9 10 15 16 17 8 13 9 9 10 14 13 11 12 13 14 12 10 10 10 11 12 10
4 4 5 6 6 7 7 6 6 6 6 7 6 7 8 7 7 7 7 8 8 7 7 8 8 9 7 7 9 9 8 8 8 9 8 10 10 10 10 9 9 10 11 13 17 13 8 11 12 12 10 11 12 12 13 11 11 10 11 11 11 10 8
4 5 6 7 7 7 7 7 6 6 7 6 6 6 7 7 7 8 8 8 8 8 8 8 9 9 7 7 9 10 9 8 9 9 9 10 10 10 10 8 8 9 9 13 16 17 10 9 12 10 11 11 12 12 10 9 11 11 11 12 9 7 9
5 5 7 7 7 7 8 7 7 7 7 7 7 7 8 8 8 9 8 8 8 8 7 9 9 9 8 9 10 11 10 9 10 9 10 12 11 11 10 10 9 9 11 13 16 14 17 10 10 13 10 9 10 11 13 11 10 10 9 8 9 9 9
6 6 6 7 7 8 8 8 7 7 7 7 7 7 8 9 9 9 8 8 9 9 9 9 10 10 10 11 11 12 12 11 11 10 11 12 13 12 11 11 11 10 12 13 14 13 12 14 10 9 15 10 7 11 11 13 13 10 6 8 9 12 8
7 7 6 7 7 8 7 7 7 7 7 8 8 8 8 9 10 9 9 9 10 10 10 11 11 11 12 12 12 12 13 12 12 10 11 11 11 11 11 11 10 10 11 12 12 12 13 11 11 11 11 10 9 11 9 6 9 14 13 11 9 9 11
6 7 8 7 8 8 7 7 7 6 7 7 8 8 8 10 11 11 11 11 11 11 12 11 11 12 12 14 18 21 20 17 15 11 12 11 10 11 11 11 10 10 11 11 11 13 11 12 12 11 11 11 9 10 12 9 8 12 12 12 12 10 7
7 7 8 8 8 8 7 8 6 9 16 15 10 8 9 10 11 11 12 12 12 12 13 13 12 13 18 22 24 25 26 26 26 26 19 13 10 11 12 12 12 11 11 11 13 12 11 13 14 12 11 12 11 10 10 11 11 13 12 12 13 11 5
8 8 7 8 8 8 8 8 7 13 19 21 23 15 10 10 11 12 13 12 12 10 13 13 12 12 14 17 19 19 25 25 26 25 27 29 28 21 15 13 14 14 11 12 13 11 12 13 17 16 10 11 12 9 10 10 10 11 12 12 12 15 8
8 8 7 7 7 9 10 9 10 18 20 21 22 20 12 9 10 8 8 11 12 12 11 11 11 10 9 10 11 12 13 16 20 21 22 24 25 26 28 27 19 15 14 12 13 14 13 12 16 15 10 10 10 11 10 10 11 11 12 13 13 11 12
7 8 7 7 9 10 10 10 11 18 21 22 22 22 18 9 7 9 10 12 12 12 11 11 10 10 9 10 18 15 13 13 13 15 19 20 20 21 21 25 29 29 20 15 16 16 18 13 13 16 12 8 11 10 13 11 12 11 12 12 13 13 12
8 8 8 8 9 10 11 11 9 18 22 22 22 22 19 11 10 8 10 10 11 12 12 12 11 11 12 10 11 11 12 12 12 11 11 11 11 11 14 17 22 24 27 23 18 17 19 17 10 16 14 12 10 13 14 14 15 13 14 14 15 14 12
7 8 8 8 8 9 12 11 11 18 22 22 22 22 18 10 10 9 10 10 11 12 12 11 11 12 12 12 11 10 12 12 12 12 12 12 13 12 11 12 12 12 12 13 13 15 18 18 15 17 19 18 16 17 16 16 17 16 15 15 15 14 12
6 8 9 9 8 9 12 11 12 18 20 22 21 22 11 9 9 9 9 11 11 11 10 10 11 11 12 12 12 12 19 19 15 13 14 15 13 12 11 12 12 18 21 18 16 15 17 17 19 24 22 20 16 14 14 14 14 13 12 14 14 15 8
7 7 8 9 9 10 12 13 11 14 20 22 23 17 9 10 9 9 11 11 11 10 10 10 10 10 11 12 12 13 19 22 21 15 16 15 15 14 14 13 10 15 23 28 30 32 33 33 32 30 28 24 23 20 12 9 10 11 10 13 13 12 8
8 9 9 10 11 10 11 13 11 13 17 22 22 18 11 9 9 10 10 11 10 9 9 10 17 16 12 12 11 14 21 23 19 16 16 15 15 17 14 13 10 10 11 19 26 28 30 30 29 29 29 29 29 28 21 11 14 12 9 14 12 15 11
8 10 9 8 10 10 11 12 12 14 16 21 23 17 9 9 8 10 9 8 10 8 8 9 10 16 16 14 15 21 23 24 19 15 13 14 15 17 17 13 10 11 11 10 10 10 11 13 16 16 15 15 23 25 22 15 14 11 11 14 13 12 11
8 11 11 9 8 9 10 11 13 13 18 20 22 22 12 7 8 10 10 9 10 10 8 7 7 8 13 18 20 21 22 23 22 18 14 12 12 13 16 8 9 11 13 15 14 15 14 15 14 13 12 11 11 11 11 13 11 11 11 13 13 11 10
9 11 13 10 9 10 11 10 12 14 18 19 20 21 17 8 9 9 9 8 9 8 9 8 7 7 10 17 19 20 22 23 23 20 15 12 11 11 15 19 15 15 19 15 14 13 12 10 9 9 9 10 11 11 9 9 11 11 11 12 12 11 11
9 10 12 11 10 10 12 10 14 14 15 17 18 19 19 11 8 8 8 10 9 9 8 8 7 7 9 17 19 20 22 24 22 22 15 14 22 27 27 19 14 13 10 10 10 10 10 10 10 9 8 9 9 9 10 10 9 10 10 10 10 11 12
10 10 12 12 10 9 10 9 9 14 13 14 17 17 17 17 13 15 12 9 10 9 9 7 8 8 14 19 20 21 23 22 25 21 16 24 26 26 28 23 12 11 11 10 10 10 10 10 9 9 9 9 9 8 9 9 9 8 9 9 9 10 10
8 9 11 12 11 9 8 7 7 8 12 10 12 14 16 17 18 18 10 8 8 8 8 8 7 9 17 20 22 23 24 24 23 17 24 25 25 25 23 14 11 9 9 10 10 10 10 10 9 9 9 8 8 8 9 9 9 7 6 7 7 7 8
8 9 10 10 11 11 9 7 6 7 7 10 11 14 15 15 17 16 15 10 6 7 7 11 20 23 23 22 22 23 22 18 19 22 22 23 23 21 11 9 9 10 9 10 11 10 10 10 9 8 9 8 8 9 8 7 7 7 8 8 8 8 7
9 9 10 11 11 11 10 8 6 6 5 6 8 8 10 12 9 9 10 12 12 16 21 22 21 21 20 18 15 13 10 10 11 18 23 25 23 13 10 9 9 9 9 11 11 10 11 10 8 8 8 8 8 7 7 6 8 8 8 7 8 9 9
9 9 9 10 10 10 10 9 7 7 6 6 6 4 2 3 4 8 10 10 9 10 10 12 13 12 16 18 23 22 21 19 18 15 13 10 9 8 8 8 8 9 10 10 10 10 9 9 9 9 9 9 8 8 7 6 8 9 9 8 8 9 10
9 9 10 10 10 10 10 10 9 7 6 6 6 5 5 4 4 6 6 8 8 9 10 10 11 15 10 10 10 10 8 8 8 10 10 8 7 7 8 9 11 11 9 9 8 9 8 8 7 8 8 8 8 8 7 5 7 8 9 8 8 9 10
10 10 9 9 10 10 11 11 10 8 5 7 7 10 9 8 6 6 7 9 14 13 11 10 10 9 10 8 9 9 9 8 8 8 8 9 8 7 7 7 6 8 9 9 8 9 9 9 8 8 7 7 7 7 7 5 7 8 9 9 7 10 10
13 12 9 9 11 9 11 13 12 10 16 19 22 22 22 20 20 18 14 16 21 15 12 10 10 9 9 9 8 9 9 9 8 9 8 7 7 7 6 6 6 7 8 8 8 9 9 10 9 9 8 7 8 8 6 6 7 8 7 8 9 10 10
24 24 22 15 14 12 14 18 19 20 22 23 23 22 21 20 18 19 19 19 14 11 9 9 10 10 9 9 9 10 10 9 9 9 8 8 7 7 8 8 7 8 8 8 8 9 8 8 8 9 8 8 8 8 8 5 5 6 7 8 8 10 10
19 20 20 21 19 16 12 13 15 18 21 21 22 21 21 22 22 21 20 18 17 13 11 8 10 10 10 9 10 10 9 9 9 9 8 8 8 8 7 8 8 7 7 8 8 9 9 8 9 9 9 9 9 9 8 7 6 6 7 8 8 9 10
16 18 20 22 22 24 22 20 17 20 23 24 23 23 21 22 22 21 20 19 12 9 11 9 9 10 10 9 10 10 9 9 9 9 9 8 9 9 8 8 8 8 8 8 8 8 9 9 9 9 10 10 9 9 9 8 8 7 7 8 9 9 9
15 17 18 19 20 20 21 21 22 22 21 22 22 21 21 20 17 20 21 16 11 9 11 10 10 10 10 10 10 10 10 10 9 8 8 8 9 9 8 8 7 7 9 8 9 9 9 9 9 9 9 9 8 8 8 8 8 6 7 7 8 9 9
8 9 13 11 9 11 15 17 17 18 17 18 19 20 21 21 14 12 9 8 8 9 10 10 10 10 10 9 10 9 9 10 9 9 9 9 9 9 8 8 8 8 8 9 9 9 9 9 9 9 9 9 9 8 8 8 8 7 8 8 8 8 9
9 8 7 13 15 17 17 18 19 20 20 20 21 19 17 11 10 10 9 9 8 9 10 10 10 9 10 9 9 9 9 9 9 9 9 8 8 10 9 9 9 9 9 9 9 10 10 9 10 9 9 8 9 10 10 8 8 8 8 8 9 8 9
Wind_Direction
297 302 296 292 291 284 277 274 274 269 268 261 258 258 259 267 266 263 262 261 263 257 257 257 260 262 257 261 264 265 267 271 273 276 273 271 270 266 260 260 262 271 281 284 261 291 300 302 303 298 295 296 300 305 303 304 299 300 299 298 297 297 304
278 279 279 276 276 278 275 273 269 265 260 258 259 260 253 256 256 254 257 251 257 253 245 246 254 259 258 253 255 260 261 261 266 266 264 260 259 260 260 248 266 271 275 289 291 287 288 294 297 293 295 300 306 302 301 299 298 294 290 294 297 296 296
269 272 277 276 269 266 267 265 264 264 258 257 256 257 258 254 251 253 255 254 255 255 250 255 256 260 258 255 257 258 258 257 259 258 258 259 256 257 255 252 250 268 276 281 288 291 294 293 294 291 302 299 290 294 297 295 293 293 294 289 292 293 291
275 272 265 262 263 261 259 258 256 257 254 258 258 259 263 261 257 257 256 255 258 256 253 253 259 260 254 252 255 257 257 255 257 259 258 261 260 259 258 255 252 253 269 282 288 289 283 297 299 292 288 289 290 291 291 286 288 291 290 290 288 287 294
255 259 258 257 257 260 257 254 255 256 258 258 257 260 262 261 261 260 259 257 256 255 253 252 253 261 254 252 257 261 259 256 254 254 256 258 258 256 257 255 253 259 263 277 279 288 283 285 284 282 287 289 293 294 280 283 290 293 292 288 285 299 302
252 249 255 255 260 260 260 258 253 251 254 256 257 258 258 259 258 258 260 259 258 258 254 256 257 258 256 252 255 262 261 260 259 259 258 260 260 260 260 258 259 262 267 268 273 278 293 278 281 295 276 279 287 290 297 294 286 285 284 293 305 297 297
251 252 252 258 259 260 260 261 257 255 257 258 258 255 256 259 260 261 261 259 259 258 257 256 256 256 253 253 253 258 260 261 258 256 254 254 257 257 257 258 258 260 263 265 272 277 271 284 280 271 289 291 280 282 285 297 302 292 284 295 298 298 292
253 256 251 256 256 260 261 262 260 258 255 254 252 252 255 257 262 264 261 260 259 257 257 254 254 254 253 252 253 254 257 252 258 253 255 252 253 251 251 252 256 259 263 268 271 272 282 277 283 283 271 282 291 290 284 275 295 300 305 300 290 283 298
254 260 262 259 258 261 261 261 261 256 255 254 256 252 255 259 262 261 262 262 258 256 255 253 252 252 253 252 251 249 249 249 244 246 253 252 247 249 248 255 258 261 267 267 268 276 274 278 279 275 284 288 283 280 288 298 295 288 289 293 294 286 279
254 254 258 264 264 263 261 260 257 259 260 259 253 245 247 252 255 255 256 258 256 262 260 258 256 255 253 254 256 257 258 260 260 255 250 251 244 248 253 254 261 262 262 269 273 270 278 279 274 274 274 281 278 283 289 292 290 286 292 293 287 284 271
257 256 254 256 262 265 263 260 257 258 267 270 269 263 233 232 241 255 259 259 247 246 260 262 258 257 255 256 260 261 259 259 257 257 257 257 257 256 253 259 264 262 262 272 271 271 270 272 277 276 276 275 284 282 281 283 287 287 293 290 297 297 299
253 254 255 258 262 265 265 263 255 268 273 274 276 278 274 260 262 261 257 269 272 272 271 269 266 262 259 256 256 259 262 261 261 262 261 261 262 262 262 260 261 273 279 271 275 275 266 270 273 280 279 280 283 285 285 279 279 281 282 286 283 281 283
256 258 257 256 261 264 265 263 258 269 275 278 278 281 282 267 234 257 262 267 270 273 275 279 281 282 276 275 278 277 275 276 275 271 269 267 266 265 264 266 267 267 271 282 278 276 276 263 277 280 273 268 276 281 280 284 278 274 272 271 275 275 281
257 260 258 253 256 262 266 266 257 269 276 279 280 282 284 276 270 262 273 280 282 282 280 280 281 282 280 277 277 275 277 279 279 278 275 269 266 266 267 267 267 269 270 268 270 276 276 276 267 273 280 276 274 276 276 276 272 272 273 271 266 272 276
264 262 260 258 255 262 268 266 262 273 278 281 284 285 288 285 286 283 280 278 274 272 274 276 276 275 276 278 275 271 274 277 277 276 273 270 268 264 263 260 261 262 263 265 263 264 268 272 266 265 269 267 260 254 255 257 263 268 270 274 276 274 266
258 266 267 264 261 264 270 271 263 274 280 284 286 288 287 282 282 281 278 276 271 271 271 271 270 273 273 274 274 272 277 279 281 279 275 273 271 269 266 259 258 261 264 263 259 251 250 252 249 248 250 251 249 254 256 262 265 267 269 272 274 272 271
265 266 270 272 268 265 271 276 271 271 279 283 285 289 285 280 275 271 271 268 270 268 268 267 267 269 273 274 273 274 278 281 282 280 276 275 275 272 272 271 267 260 268 276 279 280 282 284 285 288 288 288 284 280 281 274 266 258 256 262 272 274 269
277 272 268 267 267 261 268 276 273 267 275 282 285 287 286 282 277 273 270 271 266 268 267 266 269 273 276 278 280 281 284 284 283 278 275 274 278 282 283 284 283 277 268 265 271 275 278 279 280 279 279 278 281 289 296 291 279 283 288 279 274 281 286
272 274 269 262 265 266 264 275 279 277 275 280 284 287 274 267 263 267 267 273 276 271 274 276 275 277 278 280 283 285 285 287 289 289 292 293 289 284 280 282 286 281 284 283 283 277 279 277 274 273 270 270 270 269 268 266 270 279 273 276 277 276 289
274 277 276 273 270 271 268 272 277 275 273 275 281 286 286 280 276 273 274 270 271 278 268 266 274 274 282 286 289 289 288 289 287 283 280 278 277 283 287 307 300 297 300 299 297 293 290 285 288 286 284 284 275 265 257 255 257 260 263 269 273 272 264
274 274 276 275 269 269 266 258 265 270 268 266 268 276 280 263 258 263 267 269 272 272 279 280 276 275 276 283 286 288 287 285 287 288 289 289 287 292 300 305 300 298 298 290 289 287 285 281 278 273 272 276 276 275 268 259 255 255 255 260 265 270 268
273 274 276 276 269 263 264 257 246 261 263 262 262 268 274 272 262 259 267 270 266 270 268 271 274 277 280 286 288 289 289 287 290 295 300 295 293 293 293 292 289 292 295 289 287 288 286 286 287 286 282 277 276 277 278 275 267 253 250 248 251 256 264
269 269 272 276 270 260 256 253 251 242 252 254 257 260 263 263 268 273 275 272 272 271 275 275 277 279 285 287 287 286 285 287 289 288 282 284 286 287 289 290 287 288 287 285 284 282 282 284 283 286 285 282 279 276 271 273 273 266 252 251 250 253 250
267 268 273 279 284 279 270 263 254 253 258 259 255 255 259 267 273 278 273 267 267 273 273 281 281 281 284 286 286 286 286 286 286 284 285 286 287 286 286 285 283 277 278 281 283 282 282 284 285 283 283 283 284 283 282 280 280 283 283 281 281 272 273
263 266 274 279 282 286 283 273 257 255 254 263 275 275 273 272 275 277 278 275 279 280 279 284 288 289 288 289 289 289 291 289 287 284 283 282 282 283 278 277 274 276 277 276 274 276 277 278 279 275 277 282 283 286 288 291 290 287 286 282 276 268 262
269 270 272 276 279 281 283 283 275 267 266 273 271 266 265 275 302 324 316 300 293 293 291 289 289 290 291 291 289 289 282 279 278 278 279 278 277 272 267 263 269 270 271 269 273 272 275 276 277 275 277 280 284 288 288 295 294 295 287 284 280 280 269
267 270 271 274 278 281 286 288 287 285 285 273 266 264 303 341 308 297 300 296 282 281 280 281 281 281 285 287 288 287 284 282 282 281 277 269 262 255 249 251 249 256 258 265 269 273 274 278 275 278 281 280 280 278 280 283 289 289 287 287 279 277 279
267 268 274 280 283 285 288 287 286 283 284 277 273 280 284 275 280 277 269 277 279 274 274 275 282 285 284 283 281 279 271 266 264 267 271 267 258 247 240 241 244 251 257 264 267 271 276 277 280 278 278 278 276 276 276 279 281 286 289 287 291 284 281
265 265 264 269 276 283 285 284 282 279 271 272 281 290 292 291 280 274 268 264 281 288 284 282 284 284 285 281 280 281 277 274 272 267 263 265 263 257 256 259 262 262 260 262 266 268 268 272 271 271 270 274 276 273 277 276 280 279 283 286 277 276 283
258 261 264 269 265 256 265 273 277 286 285 284 286 286 285 284 284 285 286 288 291 292 288 283 283 279 282 282 279 278 277 276 272 271 268 261 259 259 255 253 255 255 262 262 264 267 272 274 276 276 274 269 270 273 266 264 267 277 277 284 282 281 279
253 259 261 261 275 268 249 263 272 277 281 283 284 284 283 284 284 285 286 289 292 285 274 280 276 278 274 273 273 271 272 272 272 268 269 267 259 252 252 256 254 253 257 260 262 266 265 271 271 274 274 272 270 271 268 259 249 259 266 266 275 277 280
253 255 258 262 262 270 279 267 264 269 277 280 282 284 284 285 286 287 288 287 287 280 274 267 272 274 271 271 270 268 269 268 266 265 263 267 269 264 253 255 257 256 255 259 261 264 267 266 268 269 272 270 271 270 269 263 264 256 265 268 267 269 274
271 272 273 272 271 270 270 275 278 278 280 281 283 285 286 287 287 286 285 287 279 264 273 267 265 266 267 265 266 268 266 266 264 266 265 259 263 268 263 256 257 258 257 255 255 257 261 262 263 265 265 265 266 267 270 266 264 262 258 265 270 271 269
266 272 273 270 268 267 268 272 278 280 280 281 281 282 284 285 284 283 279 273 268 265 264 267 263 262 261 261 262 265 266 265 263 261 263 264 261 263 265 263 257 253 255 258 257 257 260 261 261 258 262 264 261 258 260 263 259 257 263 264 265 271 273
284 263 261 265 267 264 265 268 268 270 271 274 277 278 279 282 282 279 274 262 250 256 258 259 256 257 257 255 258 259 258 264 265 265 265 265 268 265 263 263 259 256 256 256 258 257 257 255 258 258 257 261 265 266 263 262 261 260 258 265 268 270 276
277 278 272 268 270 270 272 272 271 270 272 275 275 275 276 275 271 272 266 260 250 246 253 252 255 255 260 258 259 262 262 262 265 262 262 261 263 266 264 263 262 261 260 258 257 258 257 257 256 255 257 259 259 257 259 259 259 259 258 257 262 264 265